Home > Weather > Gainesville > Past weeks

Flag for USA Past Weather in Gainesville, Florida, USA — Yesterday and Last 2 Weeks

Now
77 °F

Overcast.


Feels Like: 78 °F
Forecast: 73 / 90 °F
Wind: No wind

Location: Gainesville Regional Airport

Current Time: Jun 28, 2016 at 11:50:16 PM

Latest Report: Jun 28, 2016 at 10:53 PM


Visibility: 7 mi

Pressure: 29.98 "Hg

Humidity: 94%

Dew Point: 75 °F

Location of GainesvilleLocation

Past Weather in Gainesville — Graph

°F

Gainesville Temperature Yesterday

Maximum temperature yesterday: 92 °F (at 3:53 PM)
Minimum temperature yesterday: 70 °F (at 3:53 AM)
Average temperature yesterday: 80 °F

High & Low Weather Summary for the Past Weeks

 TemperatureHumidityPressure
High95 °F (Jun 25, 3:53 PM)97% (Jun 16, 4:53 PM)30.24 "Hg (Jun 16, 4:53 PM)
Low62 °F (Jun 21, 4:53 AM)36% (Jun 21, 5:53 PM)29.84 "Hg (Jun 17, 5:53 PM)
Average80 °F73%30.05 "Hg
* Reported Jun 13 9:53 PM — Jun 28 9:53 PM, Gainesville, Weather by CustomWeather, © 2016

Note: Actual official high and low records may vary slightly from our data, if they occured in-between our weather recording intervals... More about our weather records

Advertising

Gainesville Weather History for the Previous 24 Hours

Scroll right to see more
 ConditionsComfort  
Time TempWeatherWind HumidityBarometerVisibility
9:53 PM
Tue, Jun 28
77 °FFog.No wind94%29.98 "Hg5 mi
8:53 PM77 °FOvercast.No wind90%29.95 "Hg10 mi
7:53 PM77 °FScattered clouds.No wind88%29.93 "Hg10 mi
7:01 PM75 °FLight rain. Cloudy.6 mph94%29.93 "Hg10 mi
6:53 PM75 °FThundershowers. More clouds than sun.5 mph94%29.92 "Hg7 mi
6:03 PM75 °FStrong thunderstorms. Mostly cloudy.14 mph85%29.95 "Hg1 mi
5:53 PM77 °FThunderstorms. Mostly cloudy.22 mph77%29.95 "Hg1 mi
5:01 PM83 °FThunderstorms. Partly sunny.24 mph70%29.93 "Hg10 mi
3:53 PM93 °FPassing clouds.8 mph47%29.91 "Hg10 mi
2:53 PM93 °FBroken clouds.7 mph50%29.94 "Hg10 mi
1:53 PM92 °FBroken clouds.6 mph52%29.97 "Hg10 mi
12:53 PM89 °FPartly sunny.5 mph55%29.98 "Hg10 mi
11:53 AM90 °FPassing clouds.5 mph56%30.00 "Hg10 mi
10:53 AM87 °FSunny.No wind61%30.00 "Hg10 mi
9:53 AM85 °FSunny.3 mph70%30.00 "Hg10 mi
8:53 AM82 °FSunny.8 mph77%30.01 "Hg10 mi
7:53 AM75 °FSunny.No wind90%29.99 "Hg10 mi
6:53 AM72 °FPassing clouds.No wind93%29.98 "Hg9 mi
5:53 AM71 °FClear.No wind96%29.98 "Hg8 mi
4:53 AM72 °FClear.No wind93%29.98 "Hg10 mi
3:53 AM73 °FClear.No wind94%29.97 "Hg10 mi
2:53 AM74 °FClear.No wind94%29.99 "Hg10 mi
1:53 AM76 °FOvercast.No wind88%29.99 "Hg10 mi
12:53 AM78 °FOvercast.No wind79%30.01 "Hg10 mi
11:53 PM
Mon, Jun 27
78 °FOvercast.No wind82%30.01 "Hg10 mi
Weather by CustomWeather, © 2016

See weather overviewHow to use our weather pages